| time (UTC) | temp C | wind direction | speed KPH | gust KPH | rain 1hr cm | rain 24hr cm | rain mn cm | humidity % | barometer mb |
| 20260507001439 | 17 | 84 | 6.4 | 6.4 | 0.00 | 0.15 | 0.15 | 75 | 1062.1 |
| 20260507000937 | 17 | 83 | 3.2 | 6.4 | 0.00 | 0.15 | 0.15 | 75 | 1062.4 |
| 20260507000434 | 17 | 68 | 1.6 | 9.7 | 0.00 | 0.15 | 0.15 | 75 | 1062.4 |
| 20260506235928 | 17 | 81 | 3.2 | 6.4 | 0.00 | 0.15 | 0.15 | 74 | 1062.5 |
| 20260506235426 | 17 | 116 | 4.8 | 6.4 | 0.00 | 0.15 | 0.15 | 74 | 1062.4 |
| 20260506234921 | 17 | 69 | 4.8 | 6.4 | 0.00 | 0.15 | 0.15 | 74 | 1062.3 |
| 20260506234420 | 18 | 79 | 1.6 | 4.8 | 0.00 | 0.15 | 0.15 | 74 | 1062.2 |
| 20260506233917 | 18 | 0 | 1.6 | 4.8 | 0.00 | 0.15 | 0.15 | 73 | 1062.2 |
| 20260506233413 | 17 | 68 | 4.8 | 6.4 | 0.00 | 0.15 | 0.15 | 72 | 1062.2 |
| 20260506232910 | 18 | 68 | 6.4 | 9.7 | 0.00 | 0.15 | 0.15 | 72 | 1062.1 |
| 20260506232406 | 18 | 46 | 4.8 | 6.4 | 0.00 | 0.15 | 0.15 | 73 | 1062.0 |
| 20260506231902 | 18 | 353 | 3.2 | 4.8 | 0.00 | 0.15 | 0.15 | 73 | 1062.1 |
| 20260506231359 | 18 | 23 | 1.6 | 3.2 | 0.00 | 0.15 | 0.15 | 72 | 1062.0 |
| 20260506230857 | 18 | 65 | 0.0 | 3.2 | 0.00 | 0.15 | 0.15 | 73 | 1062.2 |
| 20260506230353 | 18 | 44 | 0.0 | 3.2 | 0.00 | 0.15 | 0.15 | 72 | 1062.2 |
| 20260506225849 | 18 | 320 | 3.2 | 3.2 | 0.00 | 0.15 | 0.15 | 71 | 1062.0 |
| 20260506225347 | 18 | 52 | 3.2 | 4.8 | 0.00 | 0.15 | 0.15 | 72 | 1061.7 |
| 20260506224844 | 18 | 302 | 1.6 | 4.8 | 0.00 | 0.15 | 0.15 | 72 | 1061.9 |
| 20260506224341 | 18 | 68 | 6.4 | 6.4 | 0.00 | 0.15 | 0.15 | 71 | 1061.9 |
| 20260506223837 | 18 | 11 | 0.0 | 6.4 | 0.00 | 0.15 | 0.15 | 71 | 1061.8 |
| 20260506223332 | 18 | 56 | 3.2 | 4.8 | 0.00 | 0.15 | 0.15 | 72 | 1061.7 |
| 20260506222830 | 18 | 58 | 3.2 | 11.3 | 0.00 | 0.15 | 0.15 | 72 | 1061.7 |
| 20260506222325 | 18 | 30 | 1.6 | 4.8 | 0.00 | 0.15 | 0.15 | 73 | 1061.6 |
| 20260506221819 | 18 | 40 | 3.2 | 4.8 | 0.00 | 0.15 | 0.15 | 74 | 1061.7 |
| 20260506221316 | 17 | 61 | 3.2 | 6.4 | 0.00 | 0.15 | 0.15 | 74 | 1061.7 |
| 20260506220814 | 17 | 53 | 3.2 | 4.8 | 0.00 | 0.15 | 0.15 | 72 | 1061.6 |
| 20260506220313 | 17 | 33 | 4.8 | 6.4 | 0.00 | 0.15 | 0.15 | 74 | 1061.6 |
| 20260506215810 | 17 | 118 | 1.6 | 4.8 | 0.00 | 0.15 | 0.15 | 75 | 1061.7 |
| 20260506215306 | 17 | 119 | 0.0 | 3.2 | 0.00 | 0.15 | 0.15 | 77 | 1061.7 |
| 20260506214802 | 17 | 37 | 3.2 | 6.4 | 0.00 | 0.15 | 0.15 | 75 | 1061.7 |
| 20260506214259 | 16 | 59 | 1.6 | 6.4 | 0.00 | 0.15 | 0.15 | 77 | 1062.0 |
| 20260506213757 | 16 | 71 | 3.2 | 11.3 | 0.00 | 0.15 | 0.15 | 78 | 1062.0 |
| 20260506213254 | 16 | 73 | 3.2 | 6.4 | 0.00 | 0.15 | 0.15 | 77 | 1062.2 |
| 20260506212751 | 16 | 45 | 0.0 | 3.2 | 0.00 | 0.15 | 0.15 | 79 | 1062.1 |
| 20260506212247 | 16 | 83 | 0.0 | 3.2 | 0.00 | 0.15 | 0.15 | 79 | 1062.0 |
| 20260506211742 | 16 | 31 | 3.2 | 4.8 | 0.00 | 0.15 | 0.15 | 79 | 1062.1 |
| 20260506211239 | 16 | 68 | 4.8 | 6.4 | 0.00 | 0.15 | 0.15 | 78 | 1062.0 |
| 20260506210736 | 16 | 78 | 3.2 | 4.8 | 0.00 | 0.15 | 0.15 | 78 | 1062.2 |
| 20260506210233 | 16 | 44 | 1.6 | 1.6 | 0.00 | 0.15 | 0.15 | 79 | 1062.3 |
| 20260506205731 | 16 | 318 | 3.2 | 6.4 | 0.00 | 0.15 | 0.15 | 77 | 1062.1 |
| 20260506205226 | 16 | 338 | 1.6 | 3.2 | 0.00 | 0.15 | 0.15 | 79 | 1062.1 |
| 20260506204723 | 16 | 23 | 1.6 | 3.2 | 0.00 | 0.15 | 0.15 | 79 | 1062.2 |
| 20260506204220 | 16 | 61 | 1.6 | 4.8 | 0.00 | 0.15 | 0.15 | 79 | 1062.2 |
| 20260506203718 | 16 | 62 | 3.2 | 3.2 | 0.00 | 0.15 | 0.15 | 79 | 1062.6 |
| 20260506203215 | 15 | 82 | 1.6 | 3.2 | 0.00 | 0.15 | 0.15 | 80 | 1062.4 |
| 20260506202713 | 15 | 19 | 1.6 | 4.8 | 0.00 | 0.15 | 0.15 | 80 | 1062.3 |
| 20260506202208 | 15 | 243 | 3.2 | 6.4 | 0.00 | 0.15 | 0.15 | 82 | 1062.3 |
| 20260506201706 | 15 | 36 | 3.2 | 6.4 | 0.00 | 0.15 | 0.15 | 80 | 1062.5 |
| 20260506201202 | 15 | 58 | 4.8 | 4.8 | 0.00 | 0.15 | 0.15 | 81 | 1062.4 |
| 20260506200659 | 15 | 4 | 1.6 | 6.4 | 0.00 | 0.15 | 0.15 | 82 | 1062.5 |
| 20260506200156 | 15 | 74 | 3.2 | 4.8 | 0.00 | 0.15 | 0.15 | 82 | 1062.8 |
| 20260506195652 | 15 | 327 | 3.2 | 3.2 | 0.00 | 0.15 | 0.15 | 83 | 1062.8 |
| 20260506195148 | 15 | 45 | 1.6 | 6.4 | 0.00 | 0.15 | 0.15 | 83 | 1062.8 |
| 20260506194646 | 14 | 311 | 3.2 | 9.7 | 0.00 | 0.15 | 0.15 | 83 | 1062.8 |
| 20260506194142 | 14 | 37 | 3.2 | 4.8 | 0.00 | 0.15 | 0.15 | 83 | 1063.2 |
| 20260506193640 | 14 | 320 | 4.8 | 11.3 | 0.00 | 0.15 | 0.15 | 83 | 1063.1 |
| 20260506193137 | 14 | 307 | 1.6 | 6.4 | 0.00 | 0.15 | 0.15 | 84 | 1063.2 |
| 20260506192634 | 14 | 331 | 0.0 | 4.8 | 0.00 | 0.15 | 0.15 | 84 | 1063.2 |
| 20260506192130 | 14 | 10 | 1.6 | 6.4 | 0.00 | 0.15 | 0.15 | 85 | 1063.4 |
| 20260506191627 | 14 | 0 | 6.4 | 11.3 | 0.00 | 0.15 | 0.15 | 84 | 1063.4 |
| 20260506191123 | 13 | 85 | 0.0 | 6.4 | 0.00 | 0.15 | 0.15 | 86 | 1063.4 |
| 20260506190621 | 13 | 51 | 4.8 | 9.7 | 0.00 | 0.15 | 0.15 | 86 | 1063.3 |
| 20260506190117 | 13 | 14 | 3.2 | 9.7 | 0.00 | 0.15 | 0.15 | 86 | 1063.4 |
| 20260506185614 | 13 | 347 | 3.2 | 4.8 | 0.00 | 0.15 | 0.15 | 87 | 1063.6 |
| 20260506185110 | 13 | 353 | 1.6 | 6.4 | 0.00 | 0.15 | 0.15 | 85 | 1063.6 |
| 20260506184608 | 13 | 326 | 3.2 | 3.2 | 0.00 | 0.15 | 0.15 | 87 | 1063.6 |
| 20260506184106 | 12 | 58 | 4.8 | 9.7 | 0.00 | 0.15 | 0.15 | 87 | 1063.6 |
| 20260506183601 | 12 | 43 | 0.0 | 3.2 | 0.00 | 0.15 | 0.15 | 89 | 1064.0 |
| 20260506183058 | 12 | 299 | 1.6 | 11.3 | 0.00 | 0.15 | 0.15 | 88 | 1064.1 |
| 20260506182555 | 12 | 340 | 4.8 | 9.7 | 0.00 | 0.15 | 0.15 | 89 | 1063.6 |
| 20260506182052 | 12 | 311 | 1.6 | 9.7 | 0.00 | 0.15 | 0.15 | 90 | 1063.9 |
| 20260506181550 | 11 | 80 | 3.2 | 11.3 | 0.00 | 0.15 | 0.15 | 90 | 1063.6 |
| 20260506181047 | 12 | 301 | 1.6 | 12.9 | 0.00 | 0.15 | 0.15 | 90 | 1063.9 |
| 20260506180543 | 12 | 53 | 1.6 | 9.7 | 0.00 | 0.15 | 0.15 | 90 | 1063.9 |
| 20260506180040 | 11 | 347 | 1.6 | 4.8 | 0.00 | 0.15 | 0.15 | 91 | 1063.8 |
| 20260506175536 | 11 | 35 | 3.2 | 6.4 | 0.00 | 0.15 | 0.15 | 91 | 1063.7 |
| 20260506175033 | 11 | 79 | 3.2 | 9.7 | 0.00 | 0.15 | 0.15 | 92 | 1063.7 |
| 20260506174532 | 11 | 337 | 3.2 | 6.4 | 0.00 | 0.15 | 0.15 | 92 | 1063.8 |
| 20260506174027 | 11 | 324 | 6.4 | 9.7 | 0.00 | 0.15 | 0.15 | 92 | 1063.8 |
| 20260506173525 | 11 | 13 | 3.2 | 14.5 | 0.00 | 0.15 | 0.15 | 92 | 1063.7 |
| 20260506173022 | 11 | 328 | 1.6 | 9.7 | 0.00 | 0.15 | 0.15 | 94 | 1063.6 |
| 20260506172519 | 10 | 99 | 4.8 | 16.1 | 0.00 | 0.15 | 0.15 | 95 | 1063.9 |
| 20260506172015 | 10 | 18 | 3.2 | 12.9 | 0.00 | 0.15 | 0.15 | 96 | 1063.4 |
| 20260506171513 | 10 | 359 | 1.6 | 11.3 | 0.00 | 0.15 | 0.15 | 97 | 1063.4 |
| 20260506171011 | 10 | 327 | 6.4 | 11.3 | 0.00 | 0.15 | 0.15 | 96 | 1063.3 |
| 20260506170508 | 10 | 157 | 4.8 | 11.3 | 0.00 | 0.15 | 0.15 | 95 | 1063.5 |
| 20260506170005 | 11 | 6 | 4.8 | 14.5 | 0.00 | 0.15 | 0.15 | 95 | 1063.5 |
| 20260506165504 | 11 | 27 | 8.0 | 12.9 | 0.00 | 0.15 | 0.15 | 94 | 1063.5 |
| 20260506164959 | 11 | 309 | 6.4 | 11.3 | 0.00 | 0.15 | 0.15 | 94 | 1063.4 |
| 20260506164456 | 11 | 1 | 8.0 | 11.3 | 0.00 | 0.15 | 0.15 | 94 | 1063.1 |
| 20260506163954 | 11 | 337 | 4.8 | 9.7 | 0.00 | 0.15 | 0.15 | 94 | 1063.1 |
| 20260506163449 | 11 | 356 | 6.4 | 12.9 | 0.00 | 0.15 | 0.15 | 95 | 1063.0 |
| 20260506162944 | 11 | 324 | 8.0 | 11.3 | 0.00 | 0.15 | 0.15 | 95 | 1063.2 |
| 20260506162442 | 11 | 345 | 3.2 | 6.4 | 0.00 | 0.15 | 0.15 | 95 | 1063.3 |
| 20260506161939 | 11 | 26 | 4.8 | 4.8 | 0.00 | 0.15 | 0.15 | 96 | 1063.2 |
| 20260506161437 | 11 | 308 | 1.6 | 4.8 | 0.00 | 0.15 | 0.15 | 96 | 1063.3 |
| 20260506160934 | 11 | 332 | 4.8 | 9.7 | 0.00 | 0.15 | 0.15 | 95 | 1063.2 |
| 20260506160431 | 11 | 349 | 3.2 | 6.4 | 0.00 | 0.15 | 0.15 | 96 | 1063.3 |
| 20260506155929 | 11 | 62 | 0.0 | 1.6 | 0.00 | 0.15 | 0.15 | 96 | 1063.2 |
| 20260506155426 | 10 | 34 | 0.0 | 6.4 | 0.00 | 0.15 | 0.15 | 96 | 1063.3 |
| 20260506153548 | 11 | 326 | 4.8 | 11.3 | 0.00 | 0.15 | 0.15 | 96 | 1062.6 |
| 20260506153045 | 10 | 66 | 1.6 | 6.4 | 0.00 | 0.15 | 0.15 | 95 | 1062.7 |
| 20260506152542 | 11 | 73 | 3.2 | 4.8 | 0.00 | 0.15 | 0.15 | 96 | 1062.7 |
| 20260506152040 | 11 | 338 | 8.0 | 9.7 | 0.00 | 0.15 | 0.15 | 95 | 1062.5 |
| 20260506151538 | 11 | 76 | 3.2 | 11.3 | 0.00 | 0.15 | 0.15 | 95 | 1062.4 |
| 20260506151035 | 11 | 93 | 6.4 | 12.9 | 0.00 | 0.15 | 0.15 | 94 | 1062.1 |
| 20260506150531 | 11 | 18 | 4.8 | 16.1 | 0.00 | 0.15 | 0.15 | 97 | 1061.1 |
| 20260506150028 | 10 | 338 | 4.8 | 16.1 | 0.00 | 0.15 | 0.15 | 98 | 1061.2 |
| 20260506145525 | 10 | 351 | 3.2 | 9.7 | 0.00 | 0.15 | 0.15 | 99 | 1061.3 |
| 20260506145022 | 10 | 42 | 4.8 | 9.7 | 0.18 | 0.15 | 0.15 | 99 | 1061.9 |
| 20260506144519 | 10 | 352 | 1.6 | 9.7 | 0.18 | 0.15 | 0.15 | 99 | 1062.3 |
| 20260506144016 | 9 | 343 | 1.6 | 6.4 | 0.13 | 0.13 | 0.13 | 99 | 1062.3 |
| 20260506143514 | 9 | 112 | 6.4 | 14.5 | 0.13 | 0.13 | 0.13 | 99 | 1061.9 |
| 20260506143012 | 9 | 81 | 6.4 | 12.9 | 0.00 | 0.10 | 0.10 | 98 | 1062.7 |
| 20260506142509 | 9 | 134 | 3.2 | 9.7 | 0.00 | 0.10 | 0.10 | 98 | 1063.6 |
| 20260506142008 | 9 | 0 | 3.2 | 6.4 | 0.00 | 0.10 | 0.10 | 98 | 1063.7 |
| 20260506141505 | 9 | 83 | 1.6 | 3.2 | 0.18 | 0.10 | 0.10 | 98 | 1064.3 |
| 20260506141003 | 9 | 262 | 1.6 | 4.8 | 0.18 | 0.10 | 0.10 | 98 | 1064.4 |
| 20260506140500 | 9 | 40 | 4.8 | 6.4 | 0.00 | 0.08 | 0.08 | 98 | 1063.3 |
| 20260506135957 | 9 | 71 | 1.6 | 4.8 | 0.00 | 0.08 | 0.08 | 97 | 1063.6 |
| 20260506135454 | 9 | 59 | 3.2 | 9.7 | 0.00 | 0.08 | 0.08 | 97 | 1063.2 |
| 20260506134950 | 9 | 309 | 6.4 | 12.9 | 0.00 | 0.08 | 0.08 | 97 | 1063.4 |
| 20260506134446 | 9 | 336 | 1.6 | 11.3 | 0.13 | 0.08 | 0.08 | 96 | 1063.5 |
| 20260506133943 | 10 | 0 | 3.2 | 11.3 | 0.48 | 0.08 | 0.08 | 95 | 1062.8 |
| 20260506133440 | 10 | 265 | 1.6 | 6.4 | 0.36 | 0.05 | 0.05 | 92 | 1063.5 |
| 20260506132937 | 10 | 357 | 4.8 | 9.7 | 0.00 | 0.00 | 0.00 | 90 | 1064.7 |
| 20260506132434 | 10 | 45 | 1.6 | 11.3 | 0.00 | 0.00 | 0.00 | 89 | 1063.2 |
| 20260506131931 | 10 | 316 | 6.4 | 9.7 | 0.00 | 0.00 | 0.00 | 89 | 1061.6 |
| 20260506131428 | 10 | 358 | 8.0 | 16.1 | 0.00 | 0.00 | 0.00 | 89 | 1061.5 |
| 20260506130925 | 10 | 350 | 11.3 | 16.1 | 0.00 | 0.00 | 0.00 | 89 | 1061.9 |
| 20260506130421 | 10 | 42 | 3.2 | 6.4 | 0.00 | 0.00 | 0.00 | 89 | 1062.5 |
| 20260506125919 | 10 | 317 | 0.0 | 12.9 | 0.00 | 0.00 | 0.00 | 89 | 1062.7 |
| 20260506125417 | 11 | 323 | 4.8 | 17.7 | 0.00 | 0.00 | 0.00 | 89 | 1062.5 |
| 20260506124915 | 11 | 24 | 3.2 | 4.8 | 0.00 | 0.00 | 0.00 | 89 | 1062.3 |
| 20260506124412 | 11 | 100 | 3.2 | 11.3 | 0.00 | 0.00 | 0.00 | 89 | 1062.1 |
| 20260506123910 | 11 | 337 | 4.8 | 6.4 | 0.00 | 0.00 | 0.00 | 89 | 1061.9 |
| 20260506123408 | 11 | 9 | 3.2 | 11.3 | 0.00 | 0.00 | 0.00 | 89 | 1061.6 |
| 20260506122905 | 11 | 10 | 3.2 | 16.1 | 0.00 | 0.00 | 0.00 | 89 | 1061.4 |
| 20260506122402 | 11 | 23 | 3.2 | 12.9 | 0.00 | 0.00 | 0.00 | 89 | 1061.0 |
| 20260506121900 | 11 | 29 | 3.2 | 9.7 | 0.00 | 0.00 | 0.00 | 89 | 1060.9 |
| 20260506121357 | 11 | 316 | 3.2 | 9.7 | 0.00 | 0.00 | 0.00 | 90 | 1060.7 |
| 20260506120854 | 11 | 2 | 6.4 | 11.3 | 0.00 | 0.00 | 0.00 | 90 | 1061.0 |
| 20260506120351 | 11 | 24 | 3.2 | 3.2 | 0.00 | 0.00 | 0.00 | 89 | 1060.5 |
| 20260506115849 | 11 | 350 | 3.2 | 11.3 | 0.00 | 0.00 | 0.00 | 89 | 1060.6 |
| 20260506115347 | 11 | 44 | 3.2 | 6.4 | 0.00 | 0.00 | 0.00 | 89 | 1060.5 |
| 20260506114844 | 11 | 24 | 3.2 | 9.7 | 0.00 | 0.00 | 0.00 | 89 | 1060.6 |
| 20260506114342 | 11 | 322 | 4.8 | 12.9 | 0.00 | 0.00 | 0.00 | 89 | 1060.6 |
| 20260506113841 | 11 | 305 | 6.4 | 9.7 | 0.00 | 0.00 | 0.00 | 89 | 1060.8 |
| 20260506113338 | 11 | 319 | 6.4 | 11.3 | 0.00 | 0.00 | 0.00 | 89 | 1060.6 |
| 20260506112834 | 11 | 313 | 1.6 | 9.7 | 0.00 | 0.00 | 0.00 | 89 | 1060.6 |
| 20260506112331 | 12 | 228 | 3.2 | 11.3 | 0.00 | 0.00 | 0.00 | 89 | 1060.7 |
| 20260506111829 | 12 | 22 | 3.2 | 6.4 | 0.00 | 0.00 | 0.00 | 89 | 1060.7 |
| 20260506111327 | 12 | 1 | 1.6 | 6.4 | 0.00 | 0.00 | 0.00 | 89 | 1060.6 |
| 20260506110824 | 12 | 44 | 1.6 | 6.4 | 0.00 | 0.00 | 0.00 | 89 | 1060.8 |
| 20260506110321 | 12 | 320 | 6.4 | 6.4 | 0.00 | 0.00 | 0.00 | 89 | 1060.6 |
| 20260506105818 | 12 | 315 | 6.4 | 14.5 | 0.00 | 0.00 | 0.00 | 88 | 1060.4 |
| 20260506105314 | 12 | 331 | 4.8 | 12.9 | 0.00 | 0.00 | 0.00 | 88 | 1060.4 |
| 20260506104812 | 12 | 358 | 3.2 | 11.3 | 0.00 | 0.00 | 0.00 | 88 | 1060.2 |
| 20260506104310 | 12 | 331 | 1.6 | 4.8 | 0.00 | 0.00 | 0.00 | 88 | 1060.2 |
| 20260506103807 | 12 | 317 | 1.6 | 6.4 | 0.00 | 0.00 | 0.00 | 88 | 1059.9 |
| 20260506103304 | 12 | 336 | 6.4 | 11.3 | 0.00 | 0.00 | 0.00 | 88 | 1059.7 |
| 20260506102802 | 12 | 281 | 1.6 | 4.8 | 0.00 | 0.00 | 0.00 | 88 | 1059.4 |
| 20260506102259 | 12 | 17 | 3.2 | 4.8 | 0.00 | 0.00 | 0.00 | 88 | 1059.4 |
| 20260506101757 | 12 | 12 | 1.6 | 11.3 | 0.00 | 0.00 | 0.00 | 88 | 1059.5 |
| 20260506101252 | 12 | 27 | 1.6 | 4.8 | 0.00 | 0.00 | 0.00 | 88 | 1059.3 |
| 20260506100750 | 12 | 14 | 3.2 | 4.8 | 0.00 | 0.00 | 0.00 | 89 | 1059.2 |
| 20260506100248 | 12 | 40 | 3.2 | 4.8 | 0.00 | 0.00 | 0.00 | 88 | 1059.3 |
| 20260506095747 | 12 | 340 | 3.2 | 4.8 | 0.00 | 0.00 | 0.00 | 88 | 1059.4 |
| 20260506095243 | 12 | 260 | 3.2 | 4.8 | 0.00 | 0.00 | 0.00 | 88 | 1059.2 |
| 20260506094740 | 12 | 59 | 3.2 | 9.7 | 0.00 | 0.00 | 0.00 | 88 | 1059.4 |
| 20260506094238 | 12 | 314 | 4.8 | 6.4 | 0.00 | 0.00 | 0.00 | 88 | 1059.4 |
| 20260506093737 | 12 | 70 | 0.0 | 4.8 | 0.00 | 0.00 | 0.00 | 88 | 1059.2 |
| 20260506093233 | 12 | 9 | 4.8 | 9.7 | 0.00 | 0.00 | 0.00 | 88 | 1059.2 |
| 20260506092731 | 12 | 22 | 3.2 | 4.8 | 0.00 | 0.00 | 0.00 | 88 | 1059.1 |
| 20260506092229 | 12 | 33 | 3.2 | 6.4 | 0.00 | 0.00 | 0.00 | 88 | 1059.0 |
| 20260506091726 | 12 | 40 | 1.6 | 6.4 | 0.00 | 0.00 | 0.00 | 88 | 1058.8 |
| 20260506091223 | 12 | 341 | 3.2 | 9.7 | 0.00 | 0.00 | 0.00 | 88 | 1059.0 |
| 20260506090721 | 12 | 39 | 3.2 | 6.4 | 0.00 | 0.00 | 0.00 | 89 | 1059.0 |
| 20260506090218 | 12 | 40 | 4.8 | 6.4 | 0.00 | 0.00 | 0.00 | 89 | 1058.7 |
| 20260506085715 | 12 | 1 | 4.8 | 9.7 | 0.00 | 0.00 | 0.00 | 89 | 1058.8 |
| 20260506085211 | 12 | 323 | 1.6 | 6.4 | 0.00 | 0.00 | 0.00 | 89 | 1058.8 |
| 20260506084708 | 12 | 53 | 0.0 | 4.8 | 0.00 | 0.00 | 0.00 | 89 | 1058.8 |
| 20260506084204 | 12 | 356 | 1.6 | 6.4 | 0.00 | 0.00 | 0.00 | 89 | 1059.1 |
| 20260506083701 | 13 | 357 | 3.2 | 4.8 | 0.00 | 0.00 | 0.00 | 89 | 1059.1 |
| 20260506083159 | 13 | 40 | 0.0 | 3.2 | 0.00 | 0.00 | 0.00 | 89 | 1058.8 |
| 20260506082656 | 13 | 45 | 1.6 | 9.7 | 0.00 | 0.00 | 0.00 | 89 | 1059.0 |
| 20260506082156 | 13 | 6 | 4.8 | 6.4 | 0.00 | 0.00 | 0.00 | 89 | 1058.8 |
| 20260506081654 | 13 | 21 | 3.2 | 6.4 | 0.00 | 0.00 | 0.00 | 89 | 1058.7 |
| 20260506081152 | 13 | 312 | 6.4 | 9.7 | 0.00 | 0.00 | 0.00 | 88 | 1058.9 |
| 20260506080650 | 13 | 354 | 1.6 | 6.4 | 0.00 | 0.00 | 0.00 | 89 | 1059.0 |
| 20260506080146 | 13 | 78 | 3.2 | 4.8 | 0.00 | 0.00 | 0.00 | 89 | 1058.8 |
| 20260506073130 | 13 | 334 | 4.8 | 4.8 | 0.00 | 0.00 | 0.00 | 90 | 1058.6 |
| 20260506072627 | 13 | 71 | 0.0 | 4.8 | 0.00 | 0.00 | 0.00 | 90 | 1058.6 |
| 20260506072125 | 13 | 16 | 3.2 | 6.4 | 0.00 | 0.00 | 0.00 | 90 | 1058.6 |
| 20260506071622 | 13 | 304 | 3.2 | 4.8 | 0.00 | 0.00 | 0.00 | 90 | 1058.6 |
| 20260506071119 | 13 | 355 | 0.0 | 4.8 | 0.00 | 0.00 | 0.00 | 90 | 1058.5 |
| 20260506070616 | 13 | 345 | 1.6 | 3.2 | 0.00 | 0.00 | 0.00 | 89 | 1058.6 |
| 20260506070114 | 13 | 305 | 0.0 | 3.2 | 0.00 | 0.00 | 0.00 | 89 | 1058.5 |
| 20260506062050 | 14 | 16 | 1.6 | 3.2 | 0.00 | 0.00 | 0.00 | 85 | 1057.9 |
| 20260506061546 | 15 | 36 | 1.6 | 4.8 | 0.00 | 0.00 | 0.00 | 84 | 1058.0 |
| 20260506061044 | 15 | 16 | 1.6 | 4.8 | 0.00 | 0.00 | 0.00 | 84 | 1058.0 |
| 20260506060542 | 15 | 3 | 0.0 | 3.2 | 0.00 | 0.00 | 0.00 | 84 | 1058.0 |
| 20260506051011 | 16 | 20 | 1.6 | 4.8 | 0.00 | 0.00 | 0.00 | 82 | 1058.3 |
| 20260506050509 | 17 | 46 | 6.4 | 9.7 | 0.00 | 0.00 | 0.00 | 81 | 1058.3 |
| 20260506044959 | 17 | 33 | 1.6 | 4.8 | 0.00 | 0.00 | 0.00 | 80 | 1058.3 |
| 20260506044458 | 17 | 79 | 0.0 | 6.4 | 0.00 | 0.00 | 0.00 | 80 | 1058.1 |
| 20260506043954 | 17 | 8 | 1.6 | 3.2 | 0.00 | 0.00 | 0.00 | 80 | 1058.2 |
| 20260506043451 | 17 | 63 | 3.2 | 4.8 | 0.00 | 0.00 | 0.00 | 79 | 1058.1 |
| 20260506042949 | 17 | 38 | 1.6 | 4.8 | 0.00 | 0.00 | 0.00 | 79 | 1058.0 |
| 20260506042448 | 17 | 40 | 8.0 | 12.9 | 0.00 | 0.00 | 0.00 | 79 | 1057.8 |
| 20260506041946 | 18 | 46 | 1.6 | 9.7 | 0.00 | 0.00 | 0.00 | 78 | 1057.9 |
| 20260506041444 | 18 | 78 | 1.6 | 4.8 | 0.00 | 0.00 | 0.00 | 78 | 1057.7 |
| 20260506040941 | 18 | 63 | 3.2 | 11.3 | 0.00 | 0.00 | 0.00 | 77 | 1057.9 |
| 20260506040438 | 18 | 74 | 1.6 | 6.4 | 0.00 | 0.00 | 0.00 | 77 | 1057.9 |
| 20260506035934 | 18 | 72 | 1.6 | 4.8 | 0.00 | 0.00 | 0.00 | 77 | 1057.7 |
| 20260506035432 | 18 | 285 | 3.2 | 4.8 | 0.00 | 0.00 | 0.00 | 77 | 1057.8 |
| 20260506034928 | 18 | 81 | 1.6 | 4.8 | 0.00 | 0.00 | 0.00 | 77 | 1057.6 |
| 20260506034425 | 18 | 45 | 1.6 | 3.2 | 0.00 | 0.00 | 0.00 | 76 | 1057.7 |
| 20260506033922 | 18 | 93 | 1.6 | 1.6 | 0.00 | 0.00 | 0.00 | 76 | 1057.8 |
| 20260506033420 | 18 | 41 | 1.6 | 4.8 | 0.00 | 0.00 | 0.00 | 75 | 1057.8 |
| 20260506032916 | 19 | 43 | 4.8 | 11.3 | 0.00 | 0.00 | 0.00 | 75 | 1057.7 |
| 20260506032413 | 19 | 5 | 1.6 | 6.4 | 0.00 | 0.00 | 0.00 | 74 | 1057.7 |
| 20260506031910 | 19 | 33 | 1.6 | 4.8 | 0.00 | 0.00 | 0.00 | 74 | 1057.7 |
| 20260506031407 | 19 | 29 | 3.2 | 4.8 | 0.00 | 0.00 | 0.00 | 73 | 1057.5 |
| 20260506030905 | 20 | 57 | 6.4 | 9.7 | 0.00 | 0.00 | 0.00 | 74 | 1057.3 |
| 20260506030403 | 20 | 17 | 1.6 | 4.8 | 0.00 | 0.00 | 0.00 | 74 | 1056.9 |
| 20260506025859 | 20 | 70 | 1.6 | 4.8 | 0.00 | 0.00 | 0.00 | 73 | 1056.8 |
| 20260506025356 | 20 | 20 | 1.6 | 6.4 | 0.00 | 0.00 | 0.00 | 74 | 1056.7 |
| 20260506024853 | 20 | 114 | 0.0 | 4.8 | 0.00 | 0.00 | 0.00 | 74 | 1056.6 |
| 20260506024350 | 20 | 29 | 1.6 | 9.7 | 0.00 | 0.00 | 0.00 | 74 | 1056.5 |
| 20260506023846 | 20 | 256 | 0.0 | 4.8 | 0.00 | 0.00 | 0.00 | 74 | 1056.4 |
| 20260506023343 | 20 | 31 | 3.2 | 12.9 | 0.00 | 0.00 | 0.00 | 73 | 1056.1 |
| 20260506022840 | 21 | 17 | 1.6 | 6.4 | 0.00 | 0.00 | 0.00 | 73 | 1055.9 |
| 20260506022337 | 21 | 20 | 1.6 | 6.4 | 0.00 | 0.00 | 0.00 | 73 | 1055.8 |
| 20260506021835 | 21 | 78 | 3.2 | 9.7 | 0.00 | 0.00 | 0.00 | 72 | 1055.9 |
| 20260506021332 | 21 | 79 | 4.8 | 11.3 | 0.00 | 0.00 | 0.00 | 72 | 1056.0 |
| 20260506020828 | 21 | 93 | 0.0 | 11.3 | 0.00 | 0.00 | 0.00 | 72 | 1055.7 |
| 20260506020326 | 22 | 26 | 3.2 | 9.7 | 0.00 | 0.00 | 0.00 | 72 | 1055.4 |
| 20260506015824 | 22 | 71 | 3.2 | 12.9 | 0.00 | 0.00 | 0.00 | 71 | 1055.2 |
| 20260506015321 | 22 | 350 | 1.6 | 4.8 | 0.00 | 0.00 | 0.00 | 71 | 1054.9 |
| 20260506014818 | 22 | 41 | 3.2 | 11.3 | 0.00 | 0.00 | 0.00 | 70 | 1054.9 |
| 20260506014315 | 22 | 19 | 4.8 | 9.7 | 0.00 | 0.00 | 0.00 | 70 | 1054.5 |
| 20260506013811 | 23 | 51 | 3.2 | 6.4 | 0.00 | 0.00 | 0.00 | 69 | 1054.4 |
| 20260506013309 | 23 | 17 | 6.4 | 6.4 | 0.00 | 0.00 | 0.00 | 68 | 1054.4 |
| 20260506012805 | 23 | 51 | 3.2 | 9.7 | 0.00 | 0.00 | 0.00 | 68 | 1054.4 |
| 20260506012307 | 24 | 21 | 4.8 | 6.4 | 0.00 | 0.00 | 0.00 | 68 | 1054.2 |
| 20260506011759 | 25 | 60 | 1.6 | 9.7 | 0.00 | 0.00 | 0.00 | 68 | 1054.1 |
| 20260506011256 | 25 | 69 | 4.8 | 6.4 | 0.00 | 0.00 | 0.00 | 67 | 1053.8 |
| 20260506010754 | 25 | 30 | 3.2 | 9.7 | 0.00 | 0.00 | 0.00 | 67 | 1053.6 |
| 20260506010251 | 26 | 52 | 1.6 | 6.4 | 0.00 | 0.00 | 0.00 | 66 | 1053.5 |
| 20260506005748 | 26 | 13 | 3.2 | 4.8 | 0.00 | 0.00 | 0.00 | 66 | 1053.4 |
| 20260506005245 | 26 | 24 | 0.0 | 1.6 | 0.00 | 0.00 | 0.00 | 69 | 1053.2 |
| 20260506004740 | 27 | 95 | 0.0 | 0.0 | 0.00 | 0.00 | 0.00 | 67 | 1053.2 |
| 20260506004239 | 27 | 104 | 0.0 | 0.0 | 0.00 | 0.00 | 0.00 | 67 | 1052.9 |
| 20260506003734 | 28 | 105 | 0.0 | 0.0 | 0.00 | 0.00 | 0.00 | 67 | 1053.1 |
| 20260506003231 | 28 | 106 | 0.0 | 0.0 | 0.00 | 0.00 | 0.00 | 63 | 1052.9 |
| 20260506002727 | 29 | 123 | 0.0 | 0.0 | 0.00 | 0.00 | 0.00 | 59 | 1053.0 |
| 20260506002223 | 29 | 128 | 0.0 | 0.0 | 0.00 | 0.00 | 0.00 | 58 | 1053.0 |
| 20260506001719 | 30 | 127 | 0.0 | 0.0 | 0.00 | 0.00 | 0.00 | 57 | 1053.0 |